This is the latest recevied weather packets stored in our database for station/object WD8INF-9. If no packets are shown the sender has not sent any weather packets the latest 10 day(s).
| Time | Temp. | Humidity | Pressure | Rain* | Wind** | Luminosity | Snow |
|---|---|---|---|---|---|---|---|
| 1778099772 | 13.89° C | - | 1011.8 hPa | 0 mm | - | - | - |
| 1778099470 | 13.89° C | - | 1011.4 hPa | 0 mm | - | - | - |
| 1778099170 | 13.89° C | - | 1011.7 hPa | 0 mm | - | - | - |
| 1778098869 | 13.89° C | - | 1011.4 hPa | 0 mm | - | - | - |
| 1778098569 | 14.44° C | - | 1011.9 hPa | 0 mm | - | - | - |
| 1778098270 | 14.44° C | - | 1011.7 hPa | 0 mm | - | - | - |
| 1778097969 | 15° C | - | 1011.6 hPa | 0 mm | - | - | - |
| 1778097670 | 15° C | - | 1011.5 hPa | 0 mm | - | - | - |
| 1778097368 | 15° C | - | 1011.7 hPa | 0 mm | - | - | - |
| 1778097243 | 15.56° C | - | 1011.2 hPa | 0 mm | - | - | - |
| 1778097068 | 15.56° C | - | 1011.2 hPa | 0 mm | - | - | - |
| 1778096768 | 15.56° C | - | 1011.4 hPa | 0 mm | - | - | - |
| 1778096466 | 15.56° C | - | 1011.2 hPa | 0 mm | - | - | - |
| 1778096166 | 16.11° C | - | 1011 hPa | 0 mm | - | - | - |
| 1778095866 | 16.11° C | - | 1011.4 hPa | 0 mm | - | - | - |
| 1778095565 | 16.11° C | - | 1011 hPa | 0 mm | - | - | - |
| 1778095265 | 16.11° C | - | 1011.3 hPa | 0 mm | - | - | - |
| 1778094964 | 16.67° C | - | 1011.2 hPa | 0 mm | - | - | - |
| 1778094664 | 16.67° C | - | 1011.4 hPa | 0 mm | - | - | - |
| 1778094363 | 15.56° C | - | 1011.2 hPa | 0 mm | - | - | - |
| 1778094063 | 15° C | - | 1011.3 hPa | 0 mm | - | - | - |
| 1778093763 | 15° C | - | 1010.9 hPa | 0 mm | - | - | - |
| 1778093462 | 15.56° C | - | 1011.2 hPa | 0 mm | - | - | - |
| 1778093159 | 16.67° C | - | 1010.9 hPa | 0 mm | - | - | - |
| 1778092559 | 16.67° C | - | 1010.8 hPa | 0 mm | - | - | - |
* Rain since midnight (hover to see other rain measurements)
** Current wind speed in m/s (hover to see current wind gust speed)